Time,TemperatureF,DewpointF,PressureIn,WindDirection,WindDirectionDegrees,WindSpeedMPH,WindSpeedGustMPH,Humidity,HourlyPrecipIn,Conditions,Clouds,dailyrainin,SoftwareType,DateUTC
2013-07-12 00:04:00,82.2,46.8,29.71,SSW,199,13.0,14.0,29,0.00,,,0.00,Wunderground v.1.15,2013-07-12 07:04:00,
2013-07-12 00:10:00,81.9,46.5,29.71,SSW,192,12.0,12.0,29,0.00,,,0.00,Wunderground v.1.15,2013-07-12 07:10:00,
2013-07-12 00:16:00,81.6,46.3,29.71,SSW,207,12.0,15.0,29,0.00,,,0.00,Wunderground v.1.15,2013-07-12 07:16:00,
2013-07-12 00:22:00,81.3,46.0,29.71,SW,218,10.0,11.0,29,0.00,,,0.00,Wunderground v.1.15,2013-07-12 07:22:00,
2013-07-12 00:28:00,81.6,46.3,29.71,SSW,210,10.0,15.0,29,0.00,,,0.00,Wunderground v.1.15,2013-07-12 07:28:00,
2013-07-12 00:34:00,81.6,46.3,29.70,SSW,207,11.0,15.0,29,0.00,,,0.00,Wunderground v.1.15,2013-07-12 07:34:00,
2013-07-12 00:40:00,81.5,46.2,29.71,South,189,11.0,11.0,29,0.00,,,0.00,Wunderground v.1.15,2013-07-12 07:40:00,
2013-07-12 00:46:00,81.4,46.1,29.70,SW,227,11.0,16.0,29,0.00,,,0.00,Wunderground v.1.15,2013-07-12 07:46:00,
2013-07-12 00:52:00,82.0,46.6,29.70,WSW,238,12.0,12.0,29,0.00,,,0.00,Wunderground v.1.15,2013-07-12 07:52:00,
2013-07-12 00:58:00,81.4,47.0,29.71,SW,215,11.0,12.0,30,0.00,,,0.00,Wunderground v.1.15,2013-07-12 07:58:00,
2013-07-12 01:03:00,80.2,46.8,29.71,SSW,207,9.0,11.0,31,0.00,,,0.00,Wunderground v.1.15,2013-07-12 08:03:00,
2013-07-12 01:10:00,80.1,46.7,29.71,SSW,196,10.0,10.0,31,0.00,,,0.00,Wunderground v.1.15,2013-07-12 08:10:00,
2013-07-12 01:16:00,80.0,46.6,29.71,SW,228,9.0,10.0,31,0.00,,,0.00,Wunderground v.1.15,2013-07-12 08:16:00,
2013-07-12 01:22:00,80.1,46.7,29.71,SW,214,7.0,11.0,31,0.00,,,0.00,Wunderground v.1.15,2013-07-12 08:22:00,
2013-07-12 01:28:00,80.2,46.8,29.71,SSW,198,8.0,11.0,31,0.00,,,0.00,Wunderground v.1.15,2013-07-12 08:28:00,
2013-07-12 01:34:00,80.0,46.6,29.71,SW,222,10.0,11.0,31,0.00,,,0.00,Wunderground v.1.15,2013-07-12 08:34:00,
2013-07-12 01:40:00,80.1,46.7,29.71,SSW,198,11.0,14.0,31,0.00,,,0.00,Wunderground v.1.15,2013-07-12 08:40:00,
2013-07-12 01:46:00,79.9,46.6,29.70,SW,219,12.0,14.0,31,0.00,,,0.00,Wunderground v.1.15,2013-07-12 08:46:00,
2013-07-12 01:52:00,79.5,46.2,29.70,SSW,205,9.0,12.0,31,0.00,,,0.00,Wunderground v.1.15,2013-07-12 08:52:00,
2013-07-12 01:58:00,78.7,46.4,29.70,WSW,240,11.0,15.0,32,0.00,,,0.00,Wunderground v.1.15,2013-07-12 08:58:00,
2013-07-12 02:04:00,78.2,46.7,29.70,SSW,204,11.0,14.0,33,0.00,,,0.00,Wunderground v.1.15,2013-07-12 09:04:00,
2013-07-12 02:10:00,78.4,46.1,29.70,SW,219,12.0,12.0,32,0.00,,,0.00,Wunderground v.1.15,2013-07-12 09:10:00,
2013-07-12 02:16:00,78.9,46.5,29.70,SW,219,13.0,17.0,32,0.00,,,0.00,Wunderground v.1.15,2013-07-12 09:16:00,
2013-07-12 02:22:00,78.8,46.4,29.70,WSW,250,13.0,14.0,32,0.00,,,0.00,Wunderground v.1.15,2013-07-12 09:22:00,
2013-07-12 02:27:00,78.9,46.5,29.70,SW,224,13.0,14.0,32,0.00,,,0.00,Wunderground v.1.15,2013-07-12 09:27:00,
2013-07-12 02:34:00,79.2,45.9,29.71,SW,227,12.0,13.0,31,0.00,,,0.00,Wunderground v.1.15,2013-07-12 09:34:00,
2013-07-12 02:40:00,78.9,46.5,29.71,SSW,199,11.0,11.0,32,0.00,,,0.00,Wunderground v.1.15,2013-07-12 09:40:00,
2013-07-12 02:46:00,78.3,46.0,29.71,SSW,213,9.0,11.0,32,0.00,,,0.00,Wunderground v.1.15,2013-07-12 09:46:00,
2013-07-12 02:52:00,78.2,45.9,29.71,South,191,9.0,12.0,32,0.00,,,0.00,Wunderground v.1.15,2013-07-12 09:52:00,
2013-07-12 02:58:00,78.2,45.9,29.71,South,190,11.0,12.0,32,0.00,,,0.00,Wunderground v.1.15,2013-07-12 09:58:00,
2013-07-12 03:04:00,78.6,45.4,29.71,SSW,199,11.0,12.0,31,0.00,,,0.00,Wunderground v.1.15,2013-07-12 10:04:00,
2013-07-12 03:10:00,78.7,45.5,29.71,SSW,197,10.0,10.0,31,0.00,,,0.00,Wunderground v.1.15,2013-07-12 10:10:00,
2013-07-12 03:15:00,78.7,46.4,29.71,SSW,197,11.0,14.0,32,0.00,,,0.00,Wunderground v.1.15,2013-07-12 10:15:00,
2013-07-12 03:22:00,78.4,46.1,29.71,SSW,196,13.0,13.0,32,0.00,,,0.00,Wunderground v.1.15,2013-07-12 10:22:00,
2013-07-12 03:28:00,78.4,45.3,29.71,SSW,197,12.0,15.0,31,0.00,,,0.00,Wunderground v.1.15,2013-07-12 10:28:00,
2013-07-12 03:34:00,78.5,45.3,29.71,SSW,213,11.0,14.0,31,0.00,,,0.00,Wunderground v.1.15,2013-07-12 10:34:00,
2013-07-12 03:40:00,78.4,45.3,29.71,SSW,211,11.0,13.0,31,0.00,,,0.00,Wunderground v.1.15,2013-07-12 10:40:00,
2013-07-12 03:46:00,78.0,45.7,29.71,SW,224,11.0,13.0,32,0.00,,,0.00,Wunderground v.1.15,2013-07-12 10:46:00,
2013-07-12 03:52:00,77.6,45.4,29.71,SSW,192,12.0,12.0,32,0.00,,,0.00,Wunderground v.1.15,2013-07-12 10:52:00,
2013-07-12 03:58:00,77.1,45.0,29.71,SSW,211,11.0,12.0,32,0.00,,,0.00,Wunderground v.1.15,2013-07-12 10:58:00,
2013-07-12 04:03:00,77.0,44.9,29.71,SW,218,10.0,11.0,32,0.00,,,0.00,Wunderground v.1.15,2013-07-12 11:03:00,
2013-07-12 04:10:00,77.7,44.6,29.71,SSW,203,11.0,11.0,31,0.00,,,0.00,Wunderground v.1.15,2013-07-12 11:10:00,
2013-07-12 07:24:00,79.4,45.3,29.76,SW,216,7.0,7.0,30,0.00,,,0.00,Wunderground v.1.15,2013-07-12 14:24:00,
2013-07-12 07:30:00,79.8,44.7,29.76,SW,225,6.0,16.0,29,0.00,,,0.00,Wunderground v.1.15,2013-07-12 14:30:00,
2013-07-12 07:36:00,80.4,45.2,29.76,WSW,241,5.0,6.0,29,0.00,,,0.00,Wunderground v.1.15,2013-07-12 14:36:00,
2013-07-12 07:42:00,81.2,45.9,29.76,WSW,247,5.0,7.0,29,0.00,,,0.00,Wunderground v.1.15,2013-07-12 14:42:00,
2013-07-12 07:48:00,81.5,45.2,29.76,WSW,237,6.0,8.0,28,0.00,,,0.00,Wunderground v.1.15,2013-07-12 14:48:00,
2013-07-12 07:54:00,82.1,45.8,29.76,SW,229,5.0,5.0,28,0.00,,,0.00,Wunderground v.1.15,2013-07-12 14:54:00,
2013-07-12 08:00:00,82.8,45.4,29.77,WSW,237,4.0,4.0,27,0.00,,,0.00,Wunderground v.1.15,2013-07-12 15:00:00,
2013-07-12 08:06:00,83.4,45.9,29.77,WSW,253,5.0,9.0,27,0.00,,,0.00,Wunderground v.1.15,2013-07-12 15:06:00,
2013-07-12 08:12:00,83.5,46.0,29.77,WSW,252,5.0,5.0,27,0.00,,,0.00,Wunderground v.1.15,2013-07-12 15:12:00,
2013-07-12 08:18:00,83.5,46.0,29.77,West,261,5.0,5.0,27,0.00,,,0.00,Wunderground v.1.15,2013-07-12 15:18:00,
2013-07-12 08:24:00,83.9,46.3,29.77,WSW,257,5.0,6.0,27,0.00,,,0.00,Wunderground v.1.15,2013-07-12 15:24:00,
2013-07-12 08:30:00,83.2,45.7,29.77,WSW,242,6.0,7.0,27,0.00,,,0.00,Wunderground v.1.15,2013-07-12 15:30:00,
2013-07-12 08:36:00,83.2,46.7,29.77,WSW,248,4.0,7.0,28,0.00,,,0.00,Wunderground v.1.15,2013-07-12 15:36:00,
2013-07-12 08:42:00,82.8,46.4,29.77,WSW,252,4.0,6.0,28,0.00,,,0.00,Wunderground v.1.15,2013-07-12 15:42:00,
2013-07-12 08:48:00,83.7,47.1,29.77,West,275,4.0,6.0,28,0.00,,,0.00,Wunderground v.1.15,2013-07-12 15:48:00,
2013-07-12 08:54:00,84.7,46.0,29.77,West,272,4.0,7.0,26,0.00,,,0.00,Wunderground v.1.15,2013-07-12 15:54:00,
2013-07-12 09:00:00,85.5,46.7,29.77,SW,236,4.0,4.0,26,0.00,,,0.00,Wunderground v.1.15,2013-07-12 16:00:00,
2013-07-12 09:06:00,86.3,47.4,29.77,WNW,284,3.0,5.0,26,0.00,,,0.00,Wunderground v.1.15,2013-07-12 16:06:00,
2013-07-12 09:12:00,86.4,47.5,29.77,WSW,257,4.0,6.0,26,0.00,,,0.00,Wunderground v.1.15,2013-07-12 16:12:00,
2013-07-12 09:18:00,86.0,47.1,29.77,West,261,4.0,6.0,26,0.00,,,0.00,Wunderground v.1.15,2013-07-12 16:18:00,
2013-07-12 09:24:00,86.5,47.5,29.77,WSW,254,4.0,6.0,26,0.00,,,0.00,Wunderground v.1.15,2013-07-12 16:24:00,
2013-07-12 09:30:00,86.8,47.8,29.77,WNW,300,5.0,5.0,26,0.00,,,0.00,Wunderground v.1.15,2013-07-12 16:30:00,
2013-07-12 09:36:00,87.4,47.3,29.77,West,274,5.0,6.0,25,0.00,,,0.00,Wunderground v.1.15,2013-07-12 16:36:00,
2013-07-12 09:42:00,88.4,48.1,29.77,West,259,5.0,7.0,25,0.00,,,0.00,Wunderground v.1.15,2013-07-12 16:42:00,
2013-07-12 09:48:00,88.6,48.3,29.77,West,277,4.0,7.0,25,0.00,,,0.00,Wunderground v.1.15,2013-07-12 16:48:00,
2013-07-12 09:54:00,88.8,48.4,29.77,West,260,3.0,3.0,25,0.00,,,0.00,Wunderground v.1.15,2013-07-12 16:54:00,
2013-07-12 10:02:00,90.0,47.2,29.77,WNW,287,3.0,7.0,23,0.00,,,0.00,Wunderground v.1.15,2013-07-12 17:02:00,
2013-07-12 10:08:00,89.7,48.1,29.77,WNW,287,3.0,7.0,24,0.00,,,0.00,Wunderground v.1.15,2013-07-12 17:08:00,
2013-07-12 10:14:00,90.2,47.4,29.77,WNW,300,2.0,6.0,23,0.00,,,0.00,Wunderground v.1.15,2013-07-12 17:14:00,
2013-07-12 10:20:00,89.6,48.0,29.77,North,5,3.0,3.0,24,0.00,,,0.00,Wunderground v.1.15,2013-07-12 17:20:00,
2013-07-12 10:28:00,91.8,47.5,29.77,NNE,32,3.0,4.0,22,0.00,,,0.00,Wunderground v.1.15,2013-07-12 17:28:00,
2013-07-12 10:34:00,91.4,48.4,29.77,NE,44,3.0,4.0,23,0.00,,,0.00,Wunderground v.1.15,2013-07-12 17:34:00,
2013-07-12 10:40:00,90.9,46.8,29.77,NE,40,2.0,2.0,22,0.00,,,0.00,Wunderground v.1.15,2013-07-12 17:40:00,
2013-07-12 10:46:00,91.5,48.5,29.76,WNW,284,2.0,3.0,23,0.00,,,0.00,Wunderground v.1.15,2013-07-12 17:46:00,
2013-07-12 10:52:00,92.3,48.0,29.76,NW,313,3.0,6.0,22,0.00,,,0.00,Wunderground v.1.15,2013-07-12 17:52:00,
2013-07-12 10:58:00,91.7,47.5,29.76,NNE,33,3.0,6.0,22,0.00,,,0.00,Wunderground v.1.15,2013-07-12 17:58:00,
2013-07-12 11:04:00,92.4,48.0,29.76,NNE,25,4.0,4.0,22,0.00,,,0.00,Wunderground v.1.15,2013-07-12 18:04:00,
2013-07-12 11:10:00,92.6,47.0,29.76,East,90,4.0,4.0,21,0.00,,,0.00,Wunderground v.1.15,2013-07-12 18:10:00,
2013-07-12 11:16:00,94.4,48.4,29.76,NNW,346,2.0,4.0,21,0.00,,,0.00,Wunderground v.1.15,2013-07-12 18:16:00,
2013-07-12 11:22:00,94.0,48.1,29.75,ENE,65,2.0,7.0,21,0.00,,,0.00,Wunderground v.1.15,2013-07-12 18:22:00,
2013-07-12 11:28:00,94.7,48.7,29.75,NNE,31,3.0,7.0,21,0.00,,,0.00,Wunderground v.1.15,2013-07-12 18:28:00,
2013-07-12 11:34:00,94.1,46.9,29.75,ENE,74,5.0,5.0,20,0.00,,,0.00,Wunderground v.1.15,2013-07-12 18:34:00,
2013-07-12 11:40:00,93.5,47.7,29.75,NNE,30,4.0,7.0,21,0.00,,,0.00,Wunderground v.1.15,2013-07-12 18:40:00,
2013-07-12 11:48:00,94.2,47.0,29.75,WSW,243,5.0,10.0,20,0.00,,,0.00,Wunderground v.1.15,2013-07-12 18:48:00,
2013-07-12 11:56:00,95.0,46.3,29.75,SW,222,5.0,5.0,19,0.00,,,0.00,Wunderground v.1.15,2013-07-12 18:56:00,
2013-07-12 12:02:00,95.6,46.8,29.75,WSW,250,5.0,5.0,19,0.00,,,0.00,Wunderground v.1.15,2013-07-12 19:02:00,
2013-07-12 12:08:00,95.8,45.5,29.75,SSW,192,5.0,9.0,18,0.00,,,0.00,Wunderground v.1.15,2013-07-12 19:08:00,
2013-07-12 12:16:00,96.5,46.1,29.74,SW,216,7.0,12.0,18,0.00,,,0.00,Wunderground v.1.15,2013-07-12 19:16:00,
2013-07-12 12:22:00,96.7,46.2,29.74,WSW,237,7.0,8.0,18,0.00,,,0.00,Wunderground v.1.15,2013-07-12 19:22:00,
2013-07-12 12:28:00,95.9,44.1,29.74,West,271,9.0,13.0,17,0.00,,,0.00,Wunderground v.1.15,2013-07-12 19:28:00,
2013-07-12 12:34:00,96.0,45.7,29.74,SW,221,9.0,12.0,18,0.00,,,0.00,Wunderground v.1.15,2013-07-12 19:34:00,
2013-07-12 12:40:00,97.1,45.0,29.73,SW,234,7.0,13.0,17,0.00,,,0.00,Wunderground v.1.15,2013-07-12 19:40:00,
2013-07-12 12:48:00,96.9,44.9,29.73,South,184,8.0,14.0,17,0.00,,,0.00,Wunderground v.1.15,2013-07-12 19:48:00,
2013-07-12 12:54:00,97.5,45.4,29.73,SE,132,9.0,12.0,17,0.00,,,0.00,Wunderground v.1.15,2013-07-12 19:54:00,
2013-07-12 13:04:00,97.1,43.4,29.73,West,259,8.0,10.0,16,0.00,,,0.00,Wunderground v.1.15,2013-07-12 20:04:00,
2013-07-12 13:10:00,97.1,43.4,29.73,ESE,123,6.0,6.0,16,0.00,,,0.00,Wunderground v.1.15,2013-07-12 20:10:00,
2013-07-12 13:16:00,97.1,43.4,29.72,WSW,254,5.0,7.0,16,0.00,,,0.00,Wunderground v.1.15,2013-07-12 20:16:00,
2013-07-12 13:22:00,97.9,42.4,29.72,SSW,205,6.0,10.0,15,0.00,,,0.00,Wunderground v.1.15,2013-07-12 20:22:00,
2013-07-12 13:30:00,98.1,44.2,29.72,WSW,257,4.0,5.0,16,0.00,,,0.00,Wunderground v.1.15,2013-07-12 20:30:00,
2013-07-12 13:36:00,98.8,41.3,29.72,SSW,196,6.0,6.0,14,0.00,,,0.00,Wunderground v.1.15,2013-07-12 20:36:00,
2013-07-12 13:44:00,99.3,43.5,29.71,SSE,160,7.0,11.0,15,0.00,,,0.00,Wunderground v.1.15,2013-07-12 20:44:00,
2013-07-12 13:50:00,98.4,41.0,29.71,SSE,161,8.0,8.0,14,0.00,,,0.00,Wunderground v.1.15,2013-07-12 20:50:00,
2013-07-12 13:56:00,99.1,43.3,29.71,South,175,7.0,11.0,15,0.00,,,0.00,Wunderground v.1.15,2013-07-12 20:56:00,
2013-07-12 14:02:00,98.7,41.2,29.71,SSE,158,9.0,16.0,14,0.00,,,0.00,Wunderground v.1.15,2013-07-12 21:02:00,
2013-07-12 14:08:00,97.5,40.3,29.70,South,176,11.0,16.0,14,0.00,,,0.00,Wunderground v.1.15,2013-07-12 21:08:00,
2013-07-12 14:14:00,98.5,41.1,29.70,South,175,13.0,20.0,14,0.00,,,0.00,Wunderground v.1.15,2013-07-12 21:14:00,
2013-07-12 14:20:00,97.6,40.4,29.70,SSE,163,8.0,12.0,14,0.00,,,0.00,Wunderground v.1.15,2013-07-12 21:20:00,
2013-07-12 14:26:00,97.5,40.3,29.70,SSW,196,10.0,17.0,14,0.00,,,0.00,Wunderground v.1.15,2013-07-12 21:26:00,
2013-07-12 14:34:00,97.7,42.2,29.70,SSW,200,14.0,20.0,15,0.00,,,0.00,Wunderground v.1.15,2013-07-12 21:34:00,
2013-07-12 14:40:00,98.0,40.7,29.69,SSE,160,12.0,12.0,14,0.00,,,0.00,Wunderground v.1.15,2013-07-12 21:40:00,
2013-07-12 14:46:00,98.5,42.9,29.69,South,187,10.0,17.0,15,0.00,,,0.00,Wunderground v.1.15,2013-07-12 21:46:00,
2013-07-12 14:52:00,98.4,42.8,29.69,South,182,13.0,15.0,15,0.00,,,0.00,Wunderground v.1.15,2013-07-12 21:52:00,
2013-07-12 14:58:00,98.8,41.3,29.69,SSW,192,10.0,15.0,14,0.00,,,0.00,Wunderground v.1.15,2013-07-12 21:58:00,
2013-07-12 15:04:00,98.9,41.4,29.68,SW,227,8.0,19.0,14,0.00,,,0.00,Wunderground v.1.15,2013-07-12 22:04:00,
2013-07-12 15:10:00,98.0,42.5,29.68,South,180,11.0,14.0,15,0.00,,,0.00,Wunderground v.1.15,2013-07-12 22:10:00,
2013-07-12 15:16:00,99.1,45.0,29.68,WSW,255,11.0,19.0,16,0.00,,,0.00,Wunderground v.1.15,2013-07-12 22:16:00,
2013-07-12 15:22:00,98.7,43.0,29.68,SSW,202,11.0,15.0,15,0.00,,,0.00,Wunderground v.1.15,2013-07-12 22:22:00,
2013-07-12 15:30:00,97.3,41.9,29.68,SSW,200,14.0,16.0,15,0.00,,,0.00,Wunderground v.1.15,2013-07-12 22:30:00,
2013-07-12 15:36:00,96.5,43.0,29.68,South,190,13.0,17.0,16,0.00,,,0.00,Wunderground v.1.15,2013-07-12 22:36:00,
2013-07-12 15:42:00,97.8,42.3,29.67,SSE,152,14.0,16.0,15,0.00,,,0.00,Wunderground v.1.15,2013-07-12 22:42:00,
2013-07-12 15:48:00,98.9,43.2,29.67,South,182,14.0,18.0,15,0.00,,,0.00,Wunderground v.1.15,2013-07-12 22:48:00,
2013-07-12 15:56:00,100.1,42.3,29.67,SW,229,11.0,13.0,14,0.00,,,0.00,Wunderground v.1.15,2013-07-12 22:56:00,
2013-07-12 16:02:00,100.0,42.3,29.67,SSE,165,11.0,13.0,14,0.00,,,0.00,Wunderground v.1.15,2013-07-12 23:02:00,
2013-07-12 16:08:00,99.9,42.2,29.66,South,184,10.0,13.0,14,0.00,,,0.00,Wunderground v.1.15,2013-07-12 23:08:00,
2013-07-12 16:14:00,100.8,42.9,29.66,SSE,155,10.0,15.0,14,0.00,,,0.00,Wunderground v.1.15,2013-07-12 23:14:00,
2013-07-12 16:22:00,101.2,43.2,29.65,South,169,13.0,14.0,14,0.00,,,0.00,Wunderground v.1.15,2013-07-12 23:22:00,
2013-07-12 16:28:00,99.9,42.2,29.65,SSW,194,12.0,19.0,14,0.00,,,0.00,Wunderground v.1.15,2013-07-12 23:28:00,
2013-07-12 16:34:00,99.5,41.9,29.65,South,169,13.0,18.0,14,0.00,,,0.00,Wunderground v.1.15,2013-07-12 23:34:00,
2013-07-12 16:40:00,99.1,43.3,29.65,SSW,198,12.0,16.0,15,0.00,,,0.00,Wunderground v.1.15,2013-07-12 23:40:00,
2013-07-12 16:46:00,98.8,43.1,29.64,South,174,13.0,16.0,15,0.00,,,0.00,Wunderground v.1.15,2013-07-12 23:46:00,
2013-07-12 16:52:00,98.9,43.2,29.64,South,173,13.0,14.0,15,0.00,,,0.00,Wunderground v.1.15,2013-07-12 23:52:00,
2013-07-12 16:58:00,98.4,41.0,29.64,South,170,13.0,20.0,14,0.00,,,0.00,Wunderground v.1.15,2013-07-12 23:58:00,
2013-07-12 17:04:00,98.7,41.2,29.64,South,180,15.0,21.0,14,0.00,,,0.00,Wunderground v.1.15,2013-07-13 00:04:00,
2013-07-12 17:10:00,98.6,41.2,29.64,SSE,165,15.0,15.0,14,0.00,,,0.00,Wunderground v.1.15,2013-07-13 00:10:00,
2013-07-12 17:16:00,99.3,39.8,29.64,SSW,192,15.0,18.0,13,0.00,,,0.00,Wunderground v.1.15,2013-07-13 00:16:00,
2013-07-12 17:22:00,99.6,40.0,29.64,SSE,166,16.0,16.0,13,0.00,,,0.00,Wunderground v.1.15,2013-07-13 00:22:00,
2013-07-12 17:28:00,98.7,39.3,29.63,SSE,163,17.0,20.0,13,0.00,,,0.00,Wunderground v.1.15,2013-07-13 00:28:00,
2013-07-12 17:36:00,98.9,41.4,29.63,South,183,16.0,21.0,14,0.00,,,0.00,Wunderground v.1.15,2013-07-13 00:36:00,
2013-07-12 17:42:00,98.9,43.2,29.63,SSE,160,16.0,16.0,15,0.00,,,0.00,Wunderground v.1.15,2013-07-13 00:42:00,
2013-07-12 17:48:00,98.9,44.9,29.62,South,191,13.0,17.0,16,0.00,,,0.00,Wunderground v.1.15,2013-07-13 00:48:00,
2013-07-12 17:54:00,98.3,44.4,29.62,SSE,165,16.0,19.0,16,0.00,,,0.00,Wunderground v.1.15,2013-07-13 00:54:00,
2013-07-12 18:00:00,98.2,44.3,29.62,SSE,161,16.0,16.0,16,0.00,,,0.00,Wunderground v.1.15,2013-07-13 01:00:00,
2013-07-12 18:06:00,97.8,44.0,29.62,SSE,168,14.0,17.0,16,0.00,,,0.00,Wunderground v.1.15,2013-07-13 01:06:00,
2013-07-12 18:14:00,97.2,43.5,29.62,South,186,18.0,26.0,16,0.00,,,0.00,Wunderground v.1.15,2013-07-13 01:14:00,
2013-07-12 18:22:00,97.6,42.2,29.62,SSW,193,16.0,17.0,15,0.00,,,0.00,Wunderground v.1.15,2013-07-13 01:22:00,
2013-07-12 18:28:00,97.7,42.2,29.62,South,191,15.0,20.0,15,0.00,,,0.00,Wunderground v.1.15,2013-07-13 01:28:00,
2013-07-12 18:34:00,97.4,42.0,29.62,SSW,203,15.0,21.0,15,0.00,,,0.00,Wunderground v.1.15,2013-07-13 01:34:00,
2013-07-12 18:42:00,96.8,41.5,29.62,SSW,203,13.0,18.0,15,0.00,,,0.00,Wunderground v.1.15,2013-07-13 01:42:00,
2013-07-12 18:48:00,96.7,39.7,29.62,SSW,213,14.0,18.0,14,0.00,,,0.00,Wunderground v.1.15,2013-07-13 01:48:00,
2013-07-12 18:54:00,96.3,39.4,29.62,SSW,203,14.0,17.0,14,0.00,,,0.00,Wunderground v.1.15,2013-07-13 01:54:00,
2013-07-12 19:00:00,96.1,39.2,29.63,SSW,205,14.0,14.0,14,0.00,,,0.00,Wunderground v.1.15,2013-07-13 02:00:00,
2013-07-12 19:06:00,95.8,37.1,29.62,SSW,209,14.0,16.0,13,0.00,,,0.00,Wunderground v.1.15,2013-07-13 02:06:00,
2013-07-12 19:12:00,95.4,34.7,29.63,West,281,12.0,13.0,12,0.00,,,0.00,Wunderground v.1.15,2013-07-13 02:12:00,
2013-07-12 19:18:00,94.8,36.3,29.63,WNW,284,11.0,15.0,13,0.00,,,0.00,Wunderground v.1.15,2013-07-13 02:18:00,
2013-07-12 19:24:00,94.1,35.7,29.64,West,268,11.0,12.0,13,0.00,,,0.00,Wunderground v.1.15,2013-07-13 02:24:00,
2013-07-12 19:30:00,93.6,35.4,29.64,WSW,257,9.0,9.0,13,0.00,,,0.00,Wunderground v.1.15,2013-07-13 02:30:00,
2013-07-12 19:36:00,93.0,34.9,29.64,West,260,8.0,14.0,13,0.00,,,0.00,Wunderground v.1.15,2013-07-13 02:36:00,
2013-07-12 19:44:00,92.4,34.4,29.64,WSW,246,10.0,13.0,13,0.00,,,0.00,Wunderground v.1.15,2013-07-13 02:44:00,
2013-07-12 19:50:00,91.9,34.0,29.65,West,278,10.0,10.0,13,0.00,,,0.00,Wunderground v.1.15,2013-07-13 02:50:00,
2013-07-12 19:56:00,91.2,35.3,29.65,West,260,7.0,10.0,14,0.00,,,0.00,Wunderground v.1.15,2013-07-13 02:56:00,
2013-07-12 20:02:00,90.4,34.7,29.65,WSW,252,6.0,6.0,14,0.00,,,0.00,Wunderground v.1.15,2013-07-13 03:02:00,
2013-07-12 20:08:00,89.6,34.1,29.65,WSW,251,6.0,7.0,14,0.00,,,0.00,Wunderground v.1.15,2013-07-13 03:08:00,
2013-07-12 20:14:00,89.1,33.7,29.65,WSW,246,6.0,6.0,14,0.00,,,0.00,Wunderground v.1.15,2013-07-13 03:14:00,
2013-07-12 20:20:00,88.3,34.8,29.65,WSW,238,5.0,5.0,15,0.00,,,0.00,Wunderground v.1.15,2013-07-13 03:20:00,
2013-07-12 20:30:00,88.2,34.7,29.65,SW,233,8.0,9.0,15,0.00,,,0.00,Wunderground v.1.15,2013-07-13 03:30:00,
2013-07-12 20:36:00,88.1,34.6,29.66,SW,229,9.0,9.0,15,0.00,,,0.00,Wunderground v.1.15,2013-07-13 03:36:00,
2013-07-12 20:42:00,88.0,32.8,29.65,WSW,248,11.0,12.0,14,0.00,,,0.00,Wunderground v.1.15,2013-07-13 03:42:00,
2013-07-12 20:48:00,87.9,32.7,29.65,SW,226,12.0,14.0,14,0.00,,,0.00,Wunderground v.1.15,2013-07-13 03:48:00,
2013-07-12 20:54:00,87.6,30.7,29.66,SW,223,11.0,12.0,13,0.00,,,0.00,Wunderground v.1.15,2013-07-13 03:54:00,
2013-07-12 21:00:00,87.0,30.2,29.66,SSW,207,10.0,16.0,13,0.00,,,0.00,Wunderground v.1.15,2013-07-13 04:00:00,
2013-07-12 21:02:00,86.9,30.1,29.66,SSW,199,11.0,16.0,13,0.00,,,0.00,Wunderground v.1.15,2013-07-13 04:02:00,
2013-07-12 21:04:00,86.9,30.1,29.66,SSW,211,11.0,16.0,13,0.00,,,0.00,Wunderground v.1.15,2013-07-13 04:04:00,
2013-07-12 21:08:00,86.7,30.0,29.66,SSW,212,12.0,16.0,13,0.00,,,0.00,Wunderground v.1.15,2013-07-13 04:08:00,
2013-07-12 21:14:00,86.4,29.7,29.67,SSW,203,12.0,19.0,13,0.00,,,0.00,Wunderground v.1.15,2013-07-13 04:14:00,
2013-07-12 21:16:00,86.4,29.7,29.67,SSW,211,13.0,19.0,13,0.00,,,0.00,Wunderground v.1.15,2013-07-13 04:16:00,
2013-07-12 21:22:00,86.3,29.6,29.67,SSW,203,13.0,17.0,13,0.00,,,0.00,Wunderground v.1.15,2013-07-13 04:22:00,
2013-07-12 21:28:00,86.1,27.5,29.67,SSW,205,13.0,19.0,12,0.00,,,0.00,Wunderground v.1.15,2013-07-13 04:28:00,
2013-07-12 21:34:00,86.3,27.7,29.67,SSW,212,15.0,20.0,12,0.00,,,0.00,Wunderground v.1.15,2013-07-13 04:34:00,
2013-07-12 21:40:00,85.9,27.4,29.67,SSW,213,13.0,15.0,12,0.00,,,0.00,Wunderground v.1.15,2013-07-13 04:40:00,
2013-07-12 21:46:00,85.6,34.2,29.67,SSW,192,13.0,15.0,16,0.00,,,0.00,Wunderground v.1.15,2013-07-13 04:46:00,
2013-07-12 21:52:00,85.7,32.7,29.67,SSW,203,14.0,18.0,15,0.00,,,0.00,Wunderground v.1.15,2013-07-13 04:52:00,
2013-07-12 21:58:00,85.7,32.7,29.67,SSW,205,17.0,18.0,15,0.00,,,0.00,Wunderground v.1.15,2013-07-13 04:58:00,
2013-07-12 22:04:00,85.4,35.6,29.67,South,180,18.0,23.0,17,0.00,,,0.00,Wunderground v.1.15,2013-07-13 05:04:00,
2013-07-12 22:10:00,85.0,33.8,29.67,South,182,19.0,20.0,16,0.00,,,0.00,Wunderground v.1.15,2013-07-13 05:10:00,
2013-07-12 22:16:00,85.0,33.8,29.68,SSW,200,20.0,27.0,16,0.00,,,0.00,Wunderground v.1.15,2013-07-13 05:16:00,
2013-07-12 22:22:00,85.0,32.2,29.68,SW,220,19.0,19.0,15,0.00,,,0.00,Wunderground v.1.15,2013-07-13 05:22:00,
2013-07-12 22:28:00,84.8,32.0,29.68,SSW,207,16.0,19.0,15,0.00,,,0.00,Wunderground v.1.15,2013-07-13 05:28:00,
2013-07-12 22:34:00,85.2,30.6,29.68,SSW,197,18.0,24.0,14,0.00,,,0.00,Wunderground v.1.15,2013-07-13 05:34:00,
2013-07-12 22:40:00,85.3,30.7,29.68,South,188,20.0,20.0,14,0.00,,,0.00,Wunderground v.1.15,2013-07-13 05:40:00,
2013-07-12 22:46:00,85.2,30.6,29.68,SW,236,18.0,21.0,14,0.00,,,0.00,Wunderground v.1.15,2013-07-13 05:46:00,
2013-07-12 22:52:00,85.1,32.2,29.68,SSW,196,18.0,21.0,15,0.00,,,0.00,Wunderground v.1.15,2013-07-13 05:52:00,
2013-07-12 22:58:00,84.9,32.1,29.68,SSW,203,18.0,21.0,15,0.00,,,0.00,Wunderground v.1.15,2013-07-13 05:58:00,
2013-07-12 23:04:00,84.8,30.3,29.68,SSW,201,17.0,19.0,14,0.00,,,0.00,Wunderground v.1.15,2013-07-13 06:04:00,
2013-07-12 23:10:00,84.7,30.2,29.69,SSW,192,18.0,21.0,14,0.00,,,0.00,Wunderground v.1.15,2013-07-13 06:10:00,
2013-07-12 23:16:00,84.4,31.7,29.69,South,190,19.0,22.0,15,0.00,,,0.00,Wunderground v.1.15,2013-07-13 06:16:00,
2013-07-12 23:22:00,84.1,31.4,29.69,SSW,194,19.0,25.0,15,0.00,,,0.00,Wunderground v.1.15,2013-07-13 06:22:00,
2013-07-12 23:28:00,83.8,34.3,29.69,South,188,19.0,25.0,17,0.00,,,0.00,Wunderground v.1.15,2013-07-13 06:28:00,
2013-07-12 23:34:00,83.6,34.2,29.69,SSW,198,20.0,23.0,17,0.00,,,0.00,Wunderground v.1.15,2013-07-13 06:34:00,
2013-07-12 23:40:00,83.5,34.1,29.69,South,186,21.0,23.0,17,0.00,,,0.00,Wunderground v.1.15,2013-07-13 06:40:00,
2013-07-12 23:46:00,83.4,34.0,29.69,SSW,195,20.0,26.0,17,0.00,,,0.00,Wunderground v.1.15,2013-07-13 06:46:00,
2013-07-12 23:52:00,83.5,34.1,29.69,South,180,22.0,23.0,17,0.00,,,0.00,Wunderground v.1.15,2013-07-13 06:52:00,
2013-07-12 23:58:00,83.5,34.1,29.69,SSW,198,21.0,28.0,17,0.00,,,0.00,Wunderground v.1.15,2013-07-13 06:58:00,